Weather observations for the past three days for
Berthoud Pass
Imperial (Metric)
Date Time (mdt) Wind (mph) Vis. (mi.) Weather Sky Cond. Temperature (ºF) Relative Humidity Wind Chill (°F) Heat Index (°F) Pressure Precipitation (in)
Air Dwpt 6 hour altimeter (in) sea level (mb) 1 hr 3 hr 6 hr
Max. Min.
17 01:15 SW 14 G 25 0.00 Fair CLR 46.4 15.8 29% 41 30.29 0.0
17 00:55 SW 15 G 29 0.00 Fair CLR 46.4 15.8 29% 41 30.3 0.0
17 00:35 SW 8 G 16 0.00 Fair CLR 44.6 17.6 34% 41 30.31 0.0
17 00:15 W 7 G 16 0.00 Fair CLR 46.4 19.4 34% 43 30.32 0.0
16 23:55 W 6 0.00 Fair CLR 46.4 21.2 37% 44 30.33 0.0
16 23:35 SW 6 0.00 Fair CLR 46.4 23 40% 44 30.34 0.0
16 23:15 SW 7 G 16 0.00 Fair CLR 46.4 26.6 46% 43 30.34 0.0
16 22:55 W 10 G 17 0.00 Fair CLR 46.4 26.6 46% 42 30.36 0.0
16 22:35 Calm 0.00 Fair CLR 46.4 32 57% 30.36 0.0
16 22:15 Calm 0.00 Fair CLR 48.2 32 54% 30.36 0.0
16 21:55 Calm 0.00 Fair CLR 48.2 32 54% 30.36 0.0
16 21:35 SW 5 0.00 Fair CLR 50 26.6 40% 49 30.36 0.0
16 21:15 Calm 0.00 Fair CLR 50 32 50% 30.36 0.0
16 20:55 Calm 0.00 Fair CLR 50 26.6 40% 30.36 0.0
16 20:35 SW 3 0.00 Fair CLR 48.2 35.6 62% 30.36 0.0
16 20:15 N 7 0.00 Fair CLR 50 30.2 47% 48 30.36 0.0
16 19:55 W 8 0.00 Fair CLR 51.8 32 47% 30.36 0.0
16 19:35 W 6 0.00 Fair CLR 51.8 33.8 50% 30.36 0.0
16 19:15 W 5 0.00 Fair CLR 51.8 35.6 54% 30.36 0.0
16 18:55 NE 6 G 20 0.00 Fair CLR 55.4 30.2 38% 30.36 0.0
16 18:35 S 5 0.00 Partly Cloudy SCT100 53.6 33.8 47% 30.36 0.0
16 18:15 E 6 0.00 Partly Cloudy SCT100 50 35.6 58% 48 30.36 0.0
16 17:55 W 6 0.00 Partly Cloudy SCT100 51.8 37.4 58% 30.36 0.0
16 17:35 Calm 0.00 Mostly Cloudy BKN100 51.8 35.6 54% 30.36 0.0
16 17:15 S 9 G 17 0.00 Mostly Cloudy BKN100 BKN120 55.4 26.6 33% 30.36 0.0
16 16:55 SW 13 G 28 0.00 Partly Cloudy SCT110 59 19.4 21% 30.36 0.0
16 16:35 W 23 G 36 0.00 Fair and Breezy CLR 59 17.6 20% 30.36 0.0
16 16:15 W 25 G 36 0.00 Partly Cloudy and Breezy SCT100 57.2 17.6 21% 30.36 0.0
16 15:55 SW 15 G 31 0.00 Partly Cloudy SCT100 57.2 17.6 21% 30.38 0.0
16 15:35 SW 12 G 23 0.00 Partly Cloudy SCT100 57.2 19.4 23% 30.38 0.0
16 15:15 W 22 G 33 0.00 Fair and Breezy CLR 59 19.4 21% 30.37 0.0
16 14:55 W 16 G 33 0.00 Partly Cloudy SCT095 57.2 19.4 23% 30.38 0.0
16 14:35 SW 12 G 33 0.00 Partly Cloudy SCT095 57.2 19.4 23% 30.38 0.0
16 14:15 SW 18 G 32 0.00 Fair CLR 55.4 19.4 24% 30.38 0.0
16 13:55 SW 16 G 36 0.00 Fair CLR 55.4 19.4 24% 30.39 0.0
16 13:35 Calm 0.00 Partly Cloudy SCT080 55.4 21.2 26% 30.38 0.0
16 13:15 SW 12 G 20 0.00 Mostly Cloudy BKN080 55.4 21.2 26% 30.39 0.0
16 12:55 W 17 G 22 0.00 Overcast OVC080 51.8 21.2 30% 30.4 0.0
16 12:35 SW 13 G 35 0.00 Mostly Cloudy BKN080 51.8 19.4 28% 30.41 0.0
16 12:15 SW 10 G 37 0.00 Partly Cloudy SCT080 53.6 17.6 24% 30.41 0.0
16 11:55 W 18 G 29 0.00 Partly Cloudy SCT080 53.6 21.2 28% 30.41 0.0
16 11:35 W 28 G 39 0.00 Fair and Windy CLR 51.8 19.4 28% 30.41 0.0
16 11:15 W 10 G 29 0.00 Fair CLR 51.8 19.4 28% 30.41 0.0
16 10:55 SW 9 G 31 0.00 Fair CLR 50 19.4 30% 47 30.42 0.0
16 10:35 SW 14 G 25 0.00 Fair CLR 51.8 19.4 28% 30.41 0.0
16 10:15 SW 10 G 32 0.00 Fair CLR 50 19.4 30% 46 30.41 0.0
16 09:55 W 15 G 30 0.00 Fair CLR 50 19.4 30% 45 30.41 0.0
16 09:35 W 12 G 35 0.00 Fair CLR 48.2 17.6 29% 44 30.41 0.0
16 09:15 W 24 G 37 0.00 Fair and Breezy CLR 48.2 17.6 29% 41 30.41 0.0
16 08:55 SW 12 G 28 0.00 Fair CLR 46.4 17.6 32% 42 30.42 0.0
16 08:35 SW 9 G 28 0.00 Fair CLR 46.4 17.6 32% 42 30.41 0.0
16 08:15 W 15 G 33 0.00 Fair CLR 46.4 17.6 32% 41 30.41 0.0
16 07:55 W 16 G 29 0.00 Fair CLR 44.6 17.6 34% 38 30.41 0.0
16 07:35 W 10 G 23 0.00 Fair CLR 44.6 17.6 34% 40 30.41 0.0
16 07:15 W 12 G 29 0.00 Fair CLR 44.6 19.4 37% 39 30.41 0.0
16 06:55 W 15 G 29 0.00 Fair CLR 44.6 17.6 34% 38 30.41 0.0
16 06:35 W 6 G 28 0.00 Fair CLR 44.6 17.6 34% 42 30.41 0.0
16 06:15 W 9 G 24 0.00 Fair CLR 44.6 17.6 34% 40 30.41 0.0
16 05:55 W 16 G 23 0.00 Fair CLR 44.6 17.6 34% 38 30.41 0.0
16 05:35 W 16 G 31 0.00 Fair CLR 44.6 17.6 34% 38 30.4 0.0
16 05:15 W 18 G 32 0.00 Fair CLR 44.6 17.6 34% 37 30.39 0.0
16 04:55 W 15 G 33 0.00 Fair CLR 44.6 17.6 34% 38 30.39 0.0
16 04:35 W 22 G 33 0.00 Fair and Breezy CLR 44.6 17.6 34% 37 30.39 0.0
16 04:15 W 17 G 28 0.00 Fair CLR 44.6 17.6 34% 38 30.4 0.0
16 03:55 W 16 G 29 0.00 Fair CLR 44.6 19.4 37% 38 30.4 0.0
16 03:35 W 14 G 26 0.00 Fair CLR 44.6 19.4 37% 39 30.41 0.0
16 03:15 W 25 G 30 0.00 Fair and Breezy CLR 44.6 19.4 37% 36 30.4 0.0
16 02:55 W 26 G 38 0.00 Fair and Windy CLR 44.6 19.4 37% 36 30.4 0.0
16 02:35 W 26 G 35 0.00 Fair and Windy CLR 44.6 21.2 39% 36 30.4 0.0
16 02:15 W 33 G 41 0.00 Fair and Windy CLR 44.6 21.2 39% 35 30.39 0.0
16 01:55 W 32 G 47 0.00 Fair and Windy CLR 44.6 23 43% 35 30.39 0.0
16 01:35 W 35 G 44 0.00 Fair and Windy CLR 44.6 24.8 46% 35 30.39 0.0
16 01:15 W 33 G 39 0.00 Fair and Windy CLR 44.6 24.8 46% 35 30.41 0.0
16 00:55 W 39 G 46 0.00 Fair and Windy CLR 44.6 26.6 49% 34 30.39 0.0
16 00:35 W 36 G 48 0.00 Fair and Windy CLR 44.6 26.6 49% 35 30.4 0.0
16 00:15 W 33 G 46 0.00 Fair and Windy CLR 44.6 26.6 49% 35 30.41 0.0
15 23:55 W 43 G 51 0.00 Fair and Windy CLR 44.6 26.6 49% 34 30.4 0.0
15 23:35 W 47 G 53 0.00 Fair and Windy CLR 44.6 26.6 49% 33 30.38 0.0
15 23:15 W 45 G 52 0.00 Fair and Windy CLR 44.6 26.6 49% 33 30.39 0.0
15 22:55 W 40 G 51 0.00 Fair and Windy CLR 44.6 26.6 49% 34 30.41 0.0
15 22:35 W 40 G 47 0.00 Fair and Windy CLR 44.6 26.6 49% 34 30.42 0.0
15 22:15 W 37 G 41 0.00 Fair and Windy CLR 44.6 26.6 49% 34 30.43 0.0
15 21:55 W 31 G 36 0.00 Fair and Windy CLR 44.6 26.6 49% 35 30.44 0.0
15 21:35 W 30 G 43 0.00 Fair and Windy CLR 44.6 26.6 49% 35 30.44 0.0
15 21:15 W 18 G 29 0.00 Fair CLR 44.6 28.4 53% 37 30.45 0.0
15 20:55 W 23 G 30 0.00 Fair and Breezy CLR 44.6 28.4 53% 37 30.45 0.0
15 20:35 W 23 G 30 0.00 Fair and Breezy CLR 44.6 28.4 53% 37 30.44 0.0
15 20:15 W 22 G 30 0.00 Fair and Breezy CLR 44.6 28.4 53% 37 30.44 0.0
15 19:55 W 13 G 32 0.00 Partly Cloudy SCT060 46.4 28.4 50% 41 30.44 0.0
15 19:35 W 25 G 31 0.00 Fair and Breezy CLR 46.4 26.6 46% 38 30.44 0.0
15 19:15 W 24 G 37 0.00 Fair and Breezy CLR 50 26.6 40% 43 30.44 0.0
15 18:55 Calm 0.00 Fair CLR 50 26.6 40% 30.43 0.0
15 18:35 W 18 G 36 0.00 Fair CLR 48.2 26.6 43% 42 30.45 0.0
15 18:15 W 18 G 36 0.00 Fair CLR 50 26.6 40% 44 30.45 0.0
15 17:55 W 15 G 30 0.00 Fair CLR 50 28.4 43% 45 30.45 0.0
15 17:35 W 23 G 31 0.00 Fair and Breezy CLR 48.2 28.4 46% 41 30.45 0.0
15 17:15 W 20 G 38 0.00 Partly Cloudy SCT100 50 28.4 43% 44 30.46 0.0
15 16:55 W 24 G 33 0.00 Mostly Cloudy and Breezy SCT080 BKN100 50 30.2 47% 43 30.46 0.0
15 16:35 W 30 G 43 0.00 Overcast and Windy BKN070 OVC090 50 30.2 47% 43 30.46 0.0
15 16:15 W 24 G 37 0.00 Mostly Cloudy and Breezy SCT070 BKN100 51.8 26.6 38% 30.46 0.0
15 15:55 W 23 G 35 0.00 Fair and Breezy CLR 53.6 26.6 35% 30.46 0.0
15 15:35 Calm 0.00 Partly Cloudy SCT070 SCT080 53.6 23 30% 30.46 0.0
15 15:15 Calm 0.00 Fair CLR 53.6 24.8 33% 30.46 0.0
15 14:55 NW 28 0.00 Partly Cloudy and Windy SCT070 SCT090 51.8 23 32% 30.45 0.0
15 14:35 W 35 0.00 Mostly Cloudy and Windy SCT080 BKN090 51.8 23 32% 30.45 0.0
15 14:15 W 25 G 33 0.00 Mostly Cloudy and Breezy SCT060 SCT075 BKN085 53.6 26.6 35% 30.46 0.0
15 13:55 W 26 G 38 0.00 Mostly Cloudy and Windy SCT060 SCT070 BKN085 50 26.6 40% 43 30.47 0.0
15 13:35 W 33 G 45 0.00 Partly Cloudy and Windy SCT055 SCT080 SCT090 53.6 28.4 38% 30.47 0.0
15 13:15 W 26 G 39 0.00 Mostly Cloudy and Windy SCT070 BKN090 50 28.4 43% 43 30.48 0.0
15 12:55 Calm 0.00 Mostly Cloudy BKN085 50 30.2 47% 30.48 0.0
15 12:35 W 20 G 32 0.00 Fair CLR 50 28.4 43% 44 30.48 0.0
15 12:15 W 30 G 36 0.00 Partly Cloudy and Windy SCT050 50 30.2 47% 43 30.48 0.0
15 11:55 W 26 G 36 0.00 Fair and Windy CLR 50 28.4 43% 43 30.49 0.0
15 11:35 NW 28 G 35 0.00 Fair and Windy CLR 50 30.2 47% 43 30.48 0.0
15 11:15 W 23 G 33 0.00 Fair and Breezy CLR 48.2 32 54% 41 30.49 0.0
15 10:55 NW 12 G 24 0.00 Fair CLR 44.6 33.8 66% 39 30.49 0.0
15 10:35 NW 15 G 21 0.00 Fair CLR 44.6 32 61% 38 30.49 0.0
15 10:15 NW 9 G 21 0.00 Fair CLR 44.6 32 61% 40 30.49 0.0
15 09:55 NW 15 G 23 0.00 Fair CLR 44.6 32 61% 38 30.49 0.0
15 09:35 NW 13 G 17 0.00 Fair CLR 42.8 33.8 71% 37 30.49 0.0
15 09:15 NW 14 G 24 0.00 Fair CLR 44.6 32 61% 39 30.49 0.0
15 08:55 NW 17 G 29 0.00 Fair CLR 44.6 30.2 57% 38 30.49 0.0
15 08:35 NW 22 G 30 0.00 Fair and Breezy CLR 42.8 30.2 61% 34 30.49 0.0
15 08:15 NW 16 G 26 0.00 Fair CLR 42.8 30.2 61% 36 30.49 0.0
15 07:55 NW 15 G 23 0.00 Fair CLR 41 30.2 66% 34 30.49 0.0
15 07:35 NW 14 G 22 0.00 Fair CLR 41 30.2 66% 34 30.49 0.0
15 07:15 NW 16 G 25 0.00 Fair CLR 39.2 30.2 70% 31 30.49 0.0
15 06:55 NW 13 0.00 Fair CLR 37.4 30.2 75% 30 30.49 0.0
15 06:35 NW 14 G 24 0.00 Fair CLR 37.4 30.2 75% 30 30.49 0.0
15 06:15 NW 14 G 23 0.00 Fair CLR 35.6 30.2 81% 27 30.48 0.0
15 05:55 NW 18 G 32 0.00 Fair CLR 35.6 30.2 81% 26 30.48 0.0
15 05:35 NW 20 G 30 0.00 NULL NULL 33.8 32 93% 23 30.47 0.0
15 05:15 NW 12 G 24 0.00 NULL NULL 33.8 32 93% 26 30.47 0.0
15 04:55 N 20 G 25 0.00 NULL NULL 33.8 32 93% 23 30.46 0.0
15 04:35 N 14 G 20 0.00 NULL NULL 33.8 32 93% 25 30.47 0.0
15 04:15 NW 10 G 18 0.00 NULL NULL 35.6 32 87% 29 30.47 0.0
15 03:55 NW 8 G 21 0.00 NULL NULL 33.8 32 93% 28 30.48 0.0
15 03:35 NW 15 G 23 0.00 NULL NULL 35.6 32 87% 27 30.47 0.0
15 03:15 N 13 G 28 0.00 Fair CLR 35.6 32 87% 28 30.47 0.0
15 02:55 NW 14 G 22 0.00 Partly Cloudy SCT110 35.6 32 87% 27 30.48 0.0
15 02:35 W 18 G 24 0.00 NULL NULL 35.6 32 87% 26 30.49 0.0
15 02:15 NW 13 G 18 0.00 NULL NULL 35.6 32 87% 28 30.49 0.0
15 01:55 NW 14 G 24 0.00 NULL NULL 35.6 32 87% 27 30.49 0.0
15 01:35 NW 17 G 25 0.00 NULL NULL 35.6 32 87% 26 30.49 0.0
15 01:15 NW 15 G 28 0.00 NULL NULL 35.6 32 87% 27 30.49 0.0
15 00:55 NW 16 G 25 0.00 NULL NULL 35.6 32 87% 27 30.5 0.0
15 00:35 NW 17 G 31 0.00 Mostly Cloudy BKN033 35.6 32 87% 26 30.49 0.0
15 00:15 NW 17 G 33 0.00 NULL NULL 35.6 32 87% 26 30.49 0.0
14 23:55 N 25 G 33 0.00 Breezy NULL 35.6 33.8 93% 24 30.49 0.0
14 23:35 NW 20 G 36 0.00 NULL NULL 35.6 33.8 93% 26 30.5 0.0
14 23:15 N 18 G 37 0.00 NULL NULL 35.6 33.8 93% 26 30.5 0.0
14 22:55 NW 29 G 36 0.00 Windy NULL 37.4 33.8 87% 26 30.49 0.0
14 22:35 NW 29 G 35 0.00 Windy NULL 37.4 33.8 87% 26 30.5 0.0
14 22:15 NW 18 G 29 0.00 Mostly Cloudy SCT022 SCT026 BKN110 37.4 32 81% 28 30.5 0.0
14 21:55 W 15 G 25 0.00 Overcast BKN026 OVC032 37.4 32 81% 29 30.5 0.0
14 21:35 W 14 G 20 0.00 Overcast BKN026 BKN032 OVC110 37.4 32 81% 30 30.5 0.0
14 21:15 NW 15 G 22 0.00 Mostly Cloudy SCT026 BKN110 37.4 32 81% 29 30.5 0.0
14 20:55 NW 13 G 21 0.00 Fair CLR 37.4 32 81% 30 30.49 0.0
14 20:35 NW 15 G 21 0.00 Fair CLR 37.4 32 81% 29 30.5 0.0
14 20:15 NW 8 0.00 Fair CLR 37.4 32 81% 32 30.5 0.0
14 19:55 NW 10 G 26 0.00 Partly Cloudy SCT085 39.2 32 75% 33 30.51 0.0
14 19:35 NW 10 G 16 0.00 Overcast SCT070 OVC085 41 32 70% 35 30.52 0.0
14 19:15 NW 8 G 21 0.00 Overcast SCT060 OVC075 41 32 70% 36 30.53 0.0
14 18:55 NW 9 G 17 0.00 Overcast OVC060 41 32 70% 36 30.53 0.0
14 18:35 W 15 0.00 Overcast OVC050 41 32 70% 34 30.53 0.0
14 18:15 W 17 G 22 0.00 Overcast SCT045 OVC050 42.8 32 66% 35 30.52 0.0
14 17:55 W 15 G 20 0.00 Overcast SCT029 BKN037 OVC043 42.8 32 66% 36 30.53 0.0
14 17:35 N 9 G 21 0.00 Overcast SCT031 OVC040 42.8 33.8 71% 38 30.51 0.0
14 17:15 NW 23 G 38 0.00 Overcast and Breezy OVC038 44.6 32 61% 37 30.51 0.0
14 16:55 W 28 G 32 0.00 Mostly Cloudy and Windy BKN041 BKN049 44.6 30.2 57% 36 30.52 0.0
14 16:35 W 24 G 30 0.00 Partly Cloudy and Breezy SCT045 SCT100 46.4 30.2 53% 39 30.54 0.0
14 16:15 W 17 G 22 0.00 Fair CLR 46.4 30.2 53% 40 30.53 0.0
14 15:55 NW 15 G 18 0.00 Fair CLR 44.6 30.2 57% 38 30.53 0.0
14 15:35 NW 8 0.00 Mostly Cloudy SCT055 SCT075 BKN100 44.6 32 61% 41 30.55 0.0
14 15:15 W 10 G 20 0.00 Overcast BKN055 OVC075 42.8 30.2 61% 38 30.56 0.0
14 14:55 W 8 G 28 0.00 Overcast OVC055 41 30.2 66% 36 30.58 0.0
14 14:35 W 12 G 26 0.00 Overcast SCT015 BKN045 OVC055 37.4 33.8 87% 30 30.59 0.0
14 14:15 W 13 G 26 0.00 NULL NULL 37.4 33.8 87% 30 30.6 0.0
14 13:55 W 17 G 26 0.00 NULL NULL 37.4 35.6 93% 29 30.6 0.0
14 13:35 W 10 G 29 0.00 Overcast BKN002 OVC009 37.4 35.6 93% 31 30.62 0.0
14 13:15 W 21 G 28 0.00 Breezy NULL 37.4 35.6 93% 28 30.62 0.0
14 12:55 W 21 G 26 0.00 Breezy NULL 39.2 35.6 87% 30 30.61 0.0
14 12:35 NW 9 G 21 0.00 NULL NULL 41 37.4 87% 36 30.61 0.0
14 12:15 NW 7 G 22 0.00 Overcast SCT021 BKN028 OVC045 42.8 35.6 76% 39 30.62 0.0
14 11:55 NW 9 G 16 0.00 Mostly Cloudy SCT026 SCT042 BKN060 44.6 33.8 66% 40 30.62 0.0
14 11:35 NW 9 G 16 0.00 Mostly Cloudy SCT050 SCT065 BKN075 44.6 33.8 66% 40 30.62 0.0
14 11:15 NW 14 G 24 0.00 Overcast OVC070 44.6 32 61% 39 30.63 0.0
14 10:55 NW 10 G 25 0.00 Mostly Cloudy SCT070 BKN080 BKN110 42.8 33.8 71% 38 30.63 0.0
14 10:35 NW 8 G 16 0.00 Partly Cloudy SCT080 SCT110 44.6 33.8 66% 41 30.63 0.0
14 10:15 N 7 0.00 Mostly Cloudy SCT055 SCT070 BKN080 44.6 33.8 66% 41 30.62 0.0
14 09:55 N 9 0.00 Mostly Cloudy BKN065 BKN075 BKN110 44.6 33.8 66% 40 30.63 0.0
14 09:35 NW 8 0.00 Overcast SCT065 BKN075 OVC100 44.6 32 61% 41 30.63 0.0
14 09:15 NW 8 0.00 Overcast SCT075 OVC100 44.6 32 61% 41 30.64 0.0
14 08:55 NW 9 0.00 Overcast SCT085 OVC100 44.6 32 61% 40 30.64 0.0
14 08:35 NW 9 G 20 0.00 Overcast BKN085 OVC110 44.6 32 61% 40 30.63 0.0
14 08:15 NW 7 0.00 Overcast SCT060 BKN085 OVC110 44.6 32 61% 41 30.64 0.0
14 07:55 NW 8 0.00 Overcast SCT065 SCT075 OVC095 42.8 32 66% 39 30.64 0.0
14 07:35 NW 8 0.00 Mostly Cloudy BKN095 44.6 32 61% 41 30.64 0.0
14 07:15 NW 9 0.00 Fair CLR 42.8 32 66% 38 30.65 0.0
14 06:55 NW 12 G 21 0.00 Fair CLR 42.8 30.2 61% 37 30.65 0.0
14 06:35 W 16 G 25 0.00 Fair CLR 42.8 30.2 61% 36 30.65 0.0
14 06:15 W 9 G 29 0.00 Fair CLR 42.8 32 66% 38 30.65 0.0
14 05:55 W 13 G 28 0.00 Fair CLR 42.8 32 66% 37 30.65 0.0
14 05:35 W 10 G 24 0.00 Fair CLR 42.8 32 66% 38 30.65 0.0
14 05:15 SW 10 0.00 Fair CLR 42.8 32 66% 38 30.65 0.0
14 04:55 W 9 0.00 Fair CLR 42.8 32 66% 38 30.65 0.0
14 04:35 S 15 0.00 Fair CLR 42.8 32 66% 36 30.66 0.0
14 04:15 S 18 G 23 0.00 Fair CLR 42.8 32 66% 35 30.66 0.0
14 03:55 S 13 G 25 0.00 Fair CLR 42.8 33.8 71% 37 30.66 0.0
14 03:35 S 24 G 33 0.00 Breezy NULL 41 35.6 81% 32 30.66 0.0
14 03:15 SE 23 G 29 0.00 Breezy NULL 41 37.4 87% 32 30.66 0.0
14 02:55 SE 23 G 31 0.00 Mostly Cloudy and Breezy BKN001 39.2 37.4 93% 29 30.66 0.0
14 02:35 SE 24 G 35 0.00 Mostly Cloudy and Breezy BKN001 39.2 37.4 93% 29 30.66 0.0
14 02:15 SE 21 G 29 0.00 Breezy NULL 41 37.4 87% 32 30.67 0.0
14 01:55 Calm 0.00 Fair CLR 42.8 35.6 76% 30.68 0.0
14 01:35 S 24 0.00 Fair and Breezy CLR 42.8 35.6 76% 34 30.69 0.0
Date Time (mdt) Wind (mph) Vis. (mi.) Weather Sky Cond. Air Dwpt Max. Min. Relative Humidity Wind Chill (°F) Heat Index (°F) altimeter (in) sea level (mb) 1 hr 3 hr 6 hr
6 hour
Temperature (ºF) Pressure Precipitation (in)